Time,TemperatureF,DewpointF,PressureIn,WindDirection,WindDirectionDegrees,WindSpeedMPH,WindSpeedGustMPH,Humidity,HourlyPrecipIn,Conditions,Clouds,dailyrainin,SoftwareType,DateUTC
2013-01-17 00:04:00,29.7,23.1,30.11,SE,138,0.0,1.0,76,0.00,,,0.00,Wunderground v.1.15,2013-01-17 06:04:00,
2013-01-17 00:09:00,29.4,22.8,30.12,SE,128,0.0,2.0,76,0.00,,,0.00,Wunderground v.1.15,2013-01-17 06:09:00,
2013-01-17 00:14:00,29.3,22.7,30.11,SE,128,0.0,1.0,76,0.00,,,0.00,Wunderground v.1.15,2013-01-17 06:14:00,
2013-01-17 00:20:00,29.2,22.3,30.12,South,182,1.0,1.0,75,0.00,,,0.00,Wunderground v.1.15,2013-01-17 06:20:00,
2013-01-17 00:26:00,28.9,22.0,30.12,SSE,152,1.0,1.0,75,0.00,,,0.00,Wunderground v.1.15,2013-01-17 06:26:00,
2013-01-17 00:32:00,28.6,22.0,30.13,ESE,117,0.0,1.0,76,0.00,,,0.00,Wunderground v.1.15,2013-01-17 06:32:00,
2013-01-17 00:38:00,28.3,21.7,30.14,ESE,115,2.0,2.0,76,0.00,,,0.00,Wunderground v.1.15,2013-01-17 06:38:00,
2013-01-17 00:44:00,28.1,20.9,30.14,SSE,161,2.0,2.0,74,0.00,,,0.00,Wunderground v.1.15,2013-01-17 06:44:00,
2013-01-17 00:50:00,27.8,20.3,30.14,SE,129,1.0,1.0,73,0.00,,,0.00,Wunderground v.1.15,2013-01-17 06:50:00,
2013-01-17 00:56:00,27.6,20.1,30.14,SE,134,0.0,1.0,73,0.00,,,0.00,Wunderground v.1.15,2013-01-17 06:56:00,
2013-01-17 01:01:00,27.3,20.1,30.15,SE,134,0.0,0.0,74,0.00,,,0.00,Wunderground v.1.15,2013-01-17 07:01:00,
2013-01-17 01:06:00,27.2,20.0,30.16,SE,134,0.0,0.0,74,0.00,,,0.00,Wunderground v.1.15,2013-01-17 07:06:00,
2013-01-17 01:12:00,27.0,19.8,30.16,SE,134,0.0,0.0,74,0.00,,,0.00,Wunderground v.1.15,2013-01-17 07:12:00,
2013-01-17 01:18:00,26.6,18.8,30.16,ESE,122,0.0,1.0,72,0.00,,,0.00,Wunderground v.1.15,2013-01-17 07:18:00,
2013-01-17 01:24:00,26.1,18.0,30.16,SSE,156,1.0,3.0,71,0.00,,,0.00,Wunderground v.1.15,2013-01-17 07:24:00,
2013-01-17 01:30:00,25.8,17.4,30.16,ESE,122,0.0,0.0,70,0.00,,,0.00,Wunderground v.1.15,2013-01-17 07:30:00,
2013-01-17 01:36:00,25.6,16.8,30.17,ESE,116,1.0,2.0,69,0.00,,,0.00,Wunderground v.1.15,2013-01-17 07:36:00,
2013-01-17 01:42:00,25.2,15.8,30.18,ESE,121,0.0,2.0,67,0.00,,,0.00,Wunderground v.1.15,2013-01-17 07:42:00,
2013-01-17 01:47:00,24.9,15.8,30.18,ESE,120,0.0,2.0,68,0.00,,,0.00,Wunderground v.1.15,2013-01-17 07:47:00,
2013-01-17 01:53:00,24.6,15.2,30.19,SE,137,1.0,1.0,67,0.00,,,0.00,Wunderground v.1.15,2013-01-17 07:53:00,
2013-01-17 01:59:00,24.3,14.6,30.19,ESE,118,0.0,2.0,66,0.00,,,0.00,Wunderground v.1.15,2013-01-17 07:59:00,
2013-01-17 02:04:00,24.1,14.4,30.19,SE,124,0.0,1.0,66,0.00,,,0.00,Wunderground v.1.15,2013-01-17 08:04:00,
2013-01-17 02:09:00,23.9,14.5,30.20,SE,125,0.0,2.0,67,0.00,,,0.00,Wunderground v.1.15,2013-01-17 08:09:00,
2013-01-17 02:14:00,23.7,14.0,30.20,SE,134,0.0,2.0,66,0.00,,,0.00,Wunderground v.1.15,2013-01-17 08:14:00,
2013-01-17 02:19:00,23.5,13.5,30.21,ESE,119,3.0,3.0,65,0.00,,,0.00,Wunderground v.1.15,2013-01-17 08:19:00,
2013-01-17 02:24:00,23.3,12.9,30.21,SE,128,0.0,4.0,64,0.00,,,0.00,Wunderground v.1.15,2013-01-17 08:24:00,
2013-01-17 02:29:00,23.1,12.0,30.22,SE,134,2.0,4.0,62,0.00,,,0.00,Wunderground v.1.15,2013-01-17 08:29:00,
2013-01-17 02:34:00,23.0,12.3,30.22,SE,125,1.0,2.0,63,0.00,,,0.00,Wunderground v.1.15,2013-01-17 08:34:00,
2013-01-17 02:39:00,22.9,12.2,30.22,South,180,0.0,2.0,63,0.00,,,0.00,Wunderground v.1.15,2013-01-17 08:39:00,
2013-01-17 02:44:00,22.7,11.6,30.22,SE,145,0.0,5.0,62,0.00,,,0.00,Wunderground v.1.15,2013-01-17 08:44:00,
2013-01-17 02:49:00,22.5,11.1,30.23,SSE,150,0.0,5.0,61,0.00,,,0.00,Wunderground v.1.15,2013-01-17 08:49:00,
2013-01-17 02:54:00,22.4,11.0,30.24,ESE,114,0.0,2.0,61,0.00,,,0.00,Wunderground v.1.15,2013-01-17 08:54:00,
2013-01-17 02:59:00,22.2,10.8,30.24,South,178,0.0,4.0,61,0.00,,,0.00,Wunderground v.1.15,2013-01-17 08:59:00,
2013-01-17 03:04:00,22.0,9.8,30.24,SE,139,0.0,4.0,59,0.00,,,0.00,Wunderground v.1.15,2013-01-17 09:04:00,
2013-01-17 03:09:00,21.8,9.7,30.24,South,189,1.0,4.0,59,0.00,,,0.00,Wunderground v.1.15,2013-01-17 09:09:00,
2013-01-17 03:14:00,21.7,9.2,30.24,SSW,204,2.0,5.0,58,0.00,,,0.00,Wunderground v.1.15,2013-01-17 09:14:00,
2013-01-17 03:19:00,21.5,9.0,30.25,South,176,2.0,5.0,58,0.00,,,0.00,Wunderground v.1.15,2013-01-17 09:19:00,
2013-01-17 03:24:00,21.3,8.8,30.25,SE,137,3.0,4.0,58,0.00,,,0.00,Wunderground v.1.15,2013-01-17 09:24:00,
2013-01-17 03:29:00,21.2,8.7,30.25,SE,137,1.0,6.0,58,0.00,,,0.00,Wunderground v.1.15,2013-01-17 09:29:00,
2013-01-17 03:34:00,21.0,8.9,30.25,SE,137,1.0,3.0,59,0.00,,,0.00,Wunderground v.1.15,2013-01-17 09:34:00,
2013-01-17 03:39:00,20.8,8.7,30.25,SE,142,1.0,3.0,59,0.00,,,0.00,Wunderground v.1.15,2013-01-17 09:39:00,
2013-01-17 03:44:00,20.7,8.2,30.25,SSE,166,0.0,1.0,58,0.00,,,0.00,Wunderground v.1.15,2013-01-17 09:44:00,
2013-01-17 03:49:00,20.6,8.5,30.26,South,172,0.0,1.0,59,0.00,,,0.00,Wunderground v.1.15,2013-01-17 09:49:00,
2013-01-17 03:54:00,20.4,8.7,30.26,South,170,0.0,1.0,60,0.00,,,0.00,Wunderground v.1.15,2013-01-17 09:54:00,
2013-01-17 03:59:00,20.3,8.2,30.26,South,170,0.0,1.0,59,0.00,,,0.00,Wunderground v.1.15,2013-01-17 09:59:00,
2013-01-17 04:04:00,20.2,8.5,30.26,South,170,0.0,1.0,60,0.00,,,0.00,Wunderground v.1.15,2013-01-17 10:04:00,
2013-01-17 04:10:00,20.0,8.7,30.26,South,170,0.0,0.0,61,0.00,,,0.00,Wunderground v.1.15,2013-01-17 10:10:00,
2013-01-17 04:15:00,19.9,8.6,30.26,South,170,0.0,1.0,61,0.00,,,0.00,Wunderground v.1.15,2013-01-17 10:15:00,
2013-01-17 04:20:00,19.8,8.5,30.27,SSE,161,0.0,1.0,61,0.00,,,0.00,Wunderground v.1.15,2013-01-17 10:20:00,
2013-01-17 04:25:00,19.7,8.8,30.27,SSE,161,0.0,1.0,62,0.00,,,0.00,Wunderground v.1.15,2013-01-17 10:25:00,
2013-01-17 04:30:00,19.6,8.7,30.27,SE,136,0.0,1.0,62,0.00,,,0.00,Wunderground v.1.15,2013-01-17 10:30:00,
2013-01-17 04:35:00,19.5,8.6,30.27,SSE,147,0.0,2.0,62,0.00,,,0.00,Wunderground v.1.15,2013-01-17 10:35:00,
2013-01-17 04:40:00,19.4,8.5,30.28,SSE,149,0.0,0.0,62,0.00,,,0.00,Wunderground v.1.15,2013-01-17 10:40:00,
2013-01-17 04:45:00,19.4,8.5,30.28,SSE,149,0.0,1.0,62,0.00,,,0.00,Wunderground v.1.15,2013-01-17 10:45:00,
2013-01-17 04:50:00,19.3,8.8,30.28,SSE,151,1.0,1.0,63,0.00,,,0.00,Wunderground v.1.15,2013-01-17 10:50:00,
2013-01-17 04:55:00,19.2,8.7,30.28,SSE,151,0.0,1.0,63,0.00,,,0.00,Wunderground v.1.15,2013-01-17 10:55:00,
2013-01-17 05:00:00,19.1,8.6,30.29,SSE,151,1.0,1.0,63,0.00,,,0.00,Wunderground v.1.15,2013-01-17 11:00:00,
2013-01-17 05:05:00,19.1,8.6,30.28,SE,126,1.0,2.0,63,0.00,,,0.00,Wunderground v.1.15,2013-01-17 11:05:00,
2013-01-17 05:10:00,19.1,8.6,30.28,East,99,0.0,1.0,63,0.00,,,0.00,Wunderground v.1.15,2013-01-17 11:10:00,
2013-01-17 05:16:00,19.0,8.5,30.29,SW,224,0.0,2.0,63,0.00,,,0.00,Wunderground v.1.15,2013-01-17 11:16:00,
2013-01-17 05:20:00,18.9,8.4,30.28,SSE,156,0.0,1.0,63,0.00,,,0.00,Wunderground v.1.15,2013-01-17 11:20:00,
2013-01-17 05:26:00,18.8,8.3,30.28,ESE,118,0.0,2.0,63,0.00,,,0.00,Wunderground v.1.15,2013-01-17 11:26:00,
2013-01-17 05:30:00,18.6,8.1,30.28,SSE,149,0.0,1.0,63,0.00,,,0.00,Wunderground v.1.15,2013-01-17 11:30:00,
2013-01-17 05:36:00,18.5,8.0,30.29,ESE,111,1.0,2.0,63,0.00,,,0.00,Wunderground v.1.15,2013-01-17 11:36:00,
2013-01-17 05:41:00,18.4,8.2,30.28,ESE,112,0.0,1.0,64,0.00,,,0.00,Wunderground v.1.15,2013-01-17 11:41:00,
2013-01-17 05:46:00,18.2,8.1,30.29,ESE,112,0.0,1.0,64,0.00,,,0.00,Wunderground v.1.15,2013-01-17 11:46:00,
2013-01-17 05:51:00,18.1,8.3,30.30,ESE,112,0.0,0.0,65,0.00,,,0.00,Wunderground v.1.15,2013-01-17 11:51:00,
2013-01-17 05:56:00,18.0,8.5,30.30,East,96,0.0,2.0,66,0.00,,,0.00,Wunderground v.1.15,2013-01-17 11:56:00,
2013-01-17 06:01:00,17.9,8.8,30.30,East,96,0.0,1.0,67,0.00,,,0.00,Wunderground v.1.15,2013-01-17 12:01:00,
2013-01-17 06:06:00,17.8,8.0,30.30,SE,130,1.0,2.0,65,0.00,,,0.00,Wunderground v.1.15,2013-01-17 12:06:00,
2013-01-17 06:11:00,17.8,8.4,30.30,SE,129,1.0,2.0,66,0.00,,,0.00,Wunderground v.1.15,2013-01-17 12:11:00,
2013-01-17 06:16:00,17.7,7.9,30.30,SE,137,0.0,2.0,65,0.00,,,0.00,Wunderground v.1.15,2013-01-17 12:16:00,
2013-01-17 06:21:00,17.7,7.9,30.30,SE,130,0.0,1.0,65,0.00,,,0.00,Wunderground v.1.15,2013-01-17 12:21:00,
2013-01-17 06:26:00,17.6,7.5,30.31,SE,138,0.0,1.0,64,0.00,,,0.00,Wunderground v.1.15,2013-01-17 12:26:00,
2013-01-17 06:31:00,17.6,7.8,30.31,SE,137,1.0,1.0,65,0.00,,,0.00,Wunderground v.1.15,2013-01-17 12:31:00,
2013-01-17 06:36:00,17.5,7.4,30.31,SE,137,1.0,1.0,64,0.00,,,0.00,Wunderground v.1.15,2013-01-17 12:36:00,
2013-01-17 06:41:00,17.5,7.4,30.32,SE,137,0.0,1.0,64,0.00,,,0.00,Wunderground v.1.15,2013-01-17 12:41:00,
2013-01-17 06:46:00,17.4,7.6,30.32,SE,137,0.0,1.0,65,0.00,,,0.00,Wunderground v.1.15,2013-01-17 12:46:00,
2013-01-17 06:51:00,17.3,7.5,30.32,SE,137,0.0,1.0,65,0.00,,,0.00,Wunderground v.1.15,2013-01-17 12:51:00,
2013-01-17 06:56:00,17.3,8.5,30.32,SE,137,0.0,1.0,68,0.00,,,0.00,Wunderground v.1.15,2013-01-17 12:56:00,
2013-01-17 07:01:00,17.5,9.7,30.33,SE,137,0.0,0.0,71,0.00,,,0.00,Wunderground v.1.15,2013-01-17 13:01:00,
2013-01-17 07:06:00,17.5,8.4,30.33,SE,137,0.0,0.0,67,0.00,,,0.00,Wunderground v.1.15,2013-01-17 13:06:00,
2013-01-17 07:11:00,17.4,8.0,30.33,SE,137,0.0,1.0,66,0.00,,,0.00,Wunderground v.1.15,2013-01-17 13:11:00,
2013-01-17 07:16:00,17.3,7.9,30.34,SE,137,0.0,1.0,66,0.00,,,0.00,Wunderground v.1.15,2013-01-17 13:16:00,
2013-01-17 07:21:00,17.2,7.8,30.34,SE,137,0.0,0.0,66,0.00,,,0.00,Wunderground v.1.15,2013-01-17 13:21:00,
2013-01-17 07:26:00,17.2,7.8,30.34,ESE,113,0.0,3.0,66,0.00,,,0.00,Wunderground v.1.15,2013-01-17 13:26:00,
2013-01-17 07:31:00,17.2,7.4,30.34,ESE,120,0.0,2.0,65,0.00,,,0.00,Wunderground v.1.15,2013-01-17 13:31:00,
2013-01-17 07:36:00,17.1,7.7,30.34,ESE,120,0.0,2.0,66,0.00,,,0.00,Wunderground v.1.15,2013-01-17 13:36:00,
2013-01-17 07:41:00,17.1,7.3,30.34,SE,125,1.0,1.0,65,0.00,,,0.00,Wunderground v.1.15,2013-01-17 13:41:00,
2013-01-17 07:47:00,17.1,7.3,30.34,SE,125,0.0,1.0,65,0.00,,,0.00,Wunderground v.1.15,2013-01-17 13:47:00,
2013-01-17 07:52:00,17.1,7.7,30.35,SE,125,0.0,1.0,66,0.00,,,0.00,Wunderground v.1.15,2013-01-17 13:52:00,
2013-01-17 07:57:00,17.1,7.3,30.35,SE,124,2.0,2.0,65,0.00,,,0.00,Wunderground v.1.15,2013-01-17 13:57:00,
2013-01-17 08:02:00,17.1,7.3,30.35,SE,125,0.0,2.0,65,0.00,,,0.00,Wunderground v.1.15,2013-01-17 14:02:00,
2013-01-17 08:07:00,17.1,7.0,30.36,ESE,122,0.0,2.0,64,0.00,,,0.00,Wunderground v.1.15,2013-01-17 14:07:00,
2013-01-17 08:12:00,17.1,7.0,30.36,ESE,122,0.0,1.0,64,0.00,,,0.00,Wunderground v.1.15,2013-01-17 14:12:00,
2013-01-17 08:17:00,17.2,7.4,30.36,ESE,121,1.0,1.0,65,0.00,,,0.00,Wunderground v.1.15,2013-01-17 14:17:00,
2013-01-17 08:22:00,17.3,7.5,30.36,SSE,151,0.0,2.0,65,0.00,,,0.00,Wunderground v.1.15,2013-01-17 14:22:00,
2013-01-17 08:27:00,17.5,7.4,30.36,ESE,114,1.0,3.0,64,0.00,,,0.00,Wunderground v.1.15,2013-01-17 14:27:00,
2013-01-17 08:32:00,17.6,7.1,30.36,SE,134,3.0,5.0,63,0.00,,,0.00,Wunderground v.1.15,2013-01-17 14:32:00,
2013-01-17 08:37:00,17.7,6.5,30.36,SE,139,1.0,5.0,61,0.00,,,0.00,Wunderground v.1.15,2013-01-17 14:37:00,
2013-01-17 08:42:00,17.8,6.6,30.37,ESE,109,1.0,3.0,61,0.00,,,0.00,Wunderground v.1.15,2013-01-17 14:42:00,
2013-01-17 08:47:00,17.9,6.3,30.37,ESE,120,2.0,4.0,60,0.00,,,0.00,Wunderground v.1.15,2013-01-17 14:47:00,
2013-01-17 08:52:00,17.9,5.6,30.37,SE,145,2.0,3.0,58,0.00,,,0.00,Wunderground v.1.15,2013-01-17 14:52:00,
2013-01-17 08:57:00,17.9,5.6,30.37,ESE,117,4.0,5.0,58,0.00,,,0.00,Wunderground v.1.15,2013-01-17 14:57:00,
2013-01-17 09:02:00,17.9,6.0,30.37,SSE,150,2.0,2.0,59,0.00,,,0.00,Wunderground v.1.15,2013-01-17 15:02:00,
2013-01-17 09:07:00,18.1,6.2,30.38,SE,145,1.0,3.0,59,0.00,,,0.00,Wunderground v.1.15,2013-01-17 15:07:00,
2013-01-17 09:12:00,18.3,6.4,30.38,SE,124,0.0,1.0,59,0.00,,,0.00,Wunderground v.1.15,2013-01-17 15:12:00,
2013-01-17 09:17:00,18.5,6.5,30.38,SE,139,2.0,2.0,59,0.00,,,0.00,Wunderground v.1.15,2013-01-17 15:17:00,
2013-01-17 09:22:00,18.5,6.2,30.38,SSE,149,3.0,5.0,58,0.00,,,0.00,Wunderground v.1.15,2013-01-17 15:22:00,
2013-01-17 09:27:00,18.5,6.5,30.38,SE,130,1.0,5.0,59,0.00,,,0.00,Wunderground v.1.15,2013-01-17 15:27:00,
2013-01-17 09:32:00,18.7,6.7,30.39,SSE,161,1.0,2.0,59,0.00,,,0.00,Wunderground v.1.15,2013-01-17 15:32:00,
2013-01-17 09:37:00,18.8,6.4,30.39,SE,135,1.0,3.0,58,0.00,,,0.00,Wunderground v.1.15,2013-01-17 15:37:00,
2013-01-17 09:42:00,19.0,6.3,30.40,SSE,147,0.0,3.0,57,0.00,,,0.00,Wunderground v.1.15,2013-01-17 15:42:00,
2013-01-17 09:47:00,19.1,6.0,30.40,SSE,156,1.0,3.0,56,0.00,,,0.00,Wunderground v.1.15,2013-01-17 15:47:00,
2013-01-17 09:52:00,19.2,5.3,30.40,SE,134,1.0,6.0,54,0.00,,,0.00,Wunderground v.1.15,2013-01-17 15:52:00,
2013-01-17 09:57:00,19.2,5.3,30.40,SE,137,1.0,6.0,54,0.00,,,0.00,Wunderground v.1.15,2013-01-17 15:57:00,
2013-01-17 10:02:00,19.3,5.7,30.40,SSE,149,1.0,3.0,55,0.00,,,0.00,Wunderground v.1.15,2013-01-17 16:02:00,
2013-01-17 10:07:00,19.5,5.9,30.40,East,97,2.0,6.0,55,0.00,,,0.00,Wunderground v.1.15,2013-01-17 16:07:00,
2013-01-17 10:12:00,19.6,5.6,30.41,ESE,119,3.0,4.0,54,0.00,,,0.00,Wunderground v.1.15,2013-01-17 16:12:00,
2013-01-17 10:17:00,19.7,5.7,30.40,ESE,104,2.0,4.0,54,0.00,,,0.00,Wunderground v.1.15,2013-01-17 16:17:00,
2013-01-17 10:22:00,19.9,6.3,30.40,ESE,118,1.0,3.0,55,0.00,,,0.00,Wunderground v.1.15,2013-01-17 16:22:00,
2013-01-17 10:27:00,20.1,6.5,30.40,ESE,112,2.0,4.0,55,0.00,,,0.00,Wunderground v.1.15,2013-01-17 16:27:00,
2013-01-17 10:32:00,20.3,6.7,30.40,SE,128,1.0,4.0,55,0.00,,,0.00,Wunderground v.1.15,2013-01-17 16:32:00,
2013-01-17 10:37:00,20.4,7.2,30.40,SSE,156,0.0,4.0,56,0.00,,,0.00,Wunderground v.1.15,2013-01-17 16:37:00,
2013-01-17 10:42:00,20.6,7.4,30.40,SSE,151,1.0,5.0,56,0.00,,,0.00,Wunderground v.1.15,2013-01-17 16:42:00,
2013-01-17 10:47:00,20.7,7.9,30.40,SE,137,0.0,5.0,57,0.00,,,0.00,Wunderground v.1.15,2013-01-17 16:47:00,
2013-01-17 10:52:00,20.7,7.1,30.40,ESE,119,4.0,5.0,55,0.00,,,0.00,Wunderground v.1.15,2013-01-17 16:52:00,
2013-01-17 10:57:00,20.8,7.2,30.40,SE,134,2.0,5.0,55,0.00,,,0.00,Wunderground v.1.15,2013-01-17 16:57:00,
2013-01-17 11:03:00,20.7,6.2,30.40,East,95,3.0,7.0,53,0.00,,,0.00,Wunderground v.1.15,2013-01-17 17:03:00,
2013-01-17 11:08:00,20.8,6.3,30.40,ESE,107,3.0,7.0,53,0.00,,,0.00,Wunderground v.1.15,2013-01-17 17:08:00,
2013-01-17 11:13:00,21.0,6.9,30.40,ESE,105,4.0,6.0,54,0.00,,,0.00,Wunderground v.1.15,2013-01-17 17:13:00,
2013-01-17 11:18:00,20.8,6.3,30.40,ESE,112,4.0,6.0,53,0.00,,,0.00,Wunderground v.1.15,2013-01-17 17:18:00,
2013-01-17 11:23:00,21.1,6.6,30.40,ESE,108,1.0,4.0,53,0.00,,,0.00,Wunderground v.1.15,2013-01-17 17:23:00,
2013-01-17 11:28:00,21.4,6.5,30.40,SSE,161,0.0,4.0,52,0.00,,,0.00,Wunderground v.1.15,2013-01-17 17:28:00,
2013-01-17 11:33:00,21.5,6.6,30.40,SE,124,2.0,4.0,52,0.00,,,0.00,Wunderground v.1.15,2013-01-17 17:33:00,
2013-01-17 11:38:00,21.5,7.4,30.40,East,95,2.0,6.0,54,0.00,,,0.00,Wunderground v.1.15,2013-01-17 17:38:00,
2013-01-17 11:43:00,21.7,6.8,30.39,ESE,107,2.0,5.0,52,0.00,,,0.00,Wunderground v.1.15,2013-01-17 17:43:00,
2013-01-17 11:48:00,22.0,7.5,30.39,East,95,1.0,5.0,53,0.00,,,0.00,Wunderground v.1.15,2013-01-17 17:48:00,
2013-01-17 11:53:00,22.5,7.9,30.39,ESE,120,2.0,4.0,53,0.00,,,0.00,Wunderground v.1.15,2013-01-17 17:53:00,
2013-01-17 11:58:00,22.6,8.0,30.39,East,101,2.0,7.0,53,0.00,,,0.00,Wunderground v.1.15,2013-01-17 17:58:00,
2013-01-17 12:03:00,22.6,7.6,30.39,SE,128,1.0,5.0,52,0.00,,,0.00,Wunderground v.1.15,2013-01-17 18:03:00,
2013-01-17 12:08:00,22.6,7.2,30.39,SE,140,2.0,5.0,51,0.00,,,0.00,Wunderground v.1.15,2013-01-17 18:08:00,
2013-01-17 12:13:00,22.7,7.3,30.39,East,95,2.0,6.0,51,0.00,,,0.00,Wunderground v.1.15,2013-01-17 18:13:00,
2013-01-17 12:18:00,22.9,7.4,30.39,SE,136,1.0,6.0,51,0.00,,,0.00,Wunderground v.1.15,2013-01-17 18:18:00,
2013-01-17 12:23:00,23.1,7.6,30.38,ENE,76,1.0,2.0,51,0.00,,,0.00,Wunderground v.1.15,2013-01-17 18:23:00,
2013-01-17 12:28:00,23.3,7.4,30.38,SSE,161,1.0,6.0,50,0.00,,,0.00,Wunderground v.1.15,2013-01-17 18:28:00,
2013-01-17 12:33:00,23.4,7.5,30.38,NW,326,2.0,5.0,50,0.00,,,0.00,Wunderground v.1.15,2013-01-17 18:33:00,
2013-01-17 12:38:00,23.6,7.7,30.37,ESE,107,2.0,5.0,50,0.00,,,0.00,Wunderground v.1.15,2013-01-17 18:38:00,
2013-01-17 12:43:00,23.8,8.3,30.37,ENE,73,1.0,3.0,51,0.00,,,0.00,Wunderground v.1.15,2013-01-17 18:43:00,
2013-01-17 12:48:00,24.0,8.0,30.37,SE,141,1.0,3.0,50,0.00,,,0.00,Wunderground v.1.15,2013-01-17 18:48:00,
2013-01-17 12:53:00,24.2,8.2,30.37,ESE,117,1.0,5.0,50,0.00,,,0.00,Wunderground v.1.15,2013-01-17 18:53:00,
2013-01-17 12:58:00,24.3,6.9,30.37,SE,124,2.0,6.0,47,0.00,,,0.00,Wunderground v.1.15,2013-01-17 18:58:00,
2013-01-17 13:03:00,24.5,8.5,30.36,ESE,114,2.0,4.0,50,0.00,,,0.00,Wunderground v.1.15,2013-01-17 19:03:00,
2013-01-17 13:08:00,24.8,7.4,30.37,ESE,104,2.0,4.0,47,0.00,,,0.00,Wunderground v.1.15,2013-01-17 19:08:00,
2013-01-17 13:13:00,24.5,7.1,30.37,ESE,111,5.0,6.0,47,0.00,,,0.00,Wunderground v.1.15,2013-01-17 19:13:00,
2013-01-17 13:18:00,24.2,7.8,30.37,South,178,2.0,6.0,49,0.00,,,0.00,Wunderground v.1.15,2013-01-17 19:18:00,
2013-01-17 13:23:00,24.3,7.9,30.36,SE,140,0.0,6.0,49,0.00,,,0.00,Wunderground v.1.15,2013-01-17 19:23:00,
2013-01-17 13:28:00,24.5,8.0,30.37,East,82,1.0,6.0,49,0.00,,,0.00,Wunderground v.1.15,2013-01-17 19:28:00,
2013-01-17 13:33:00,24.8,8.3,30.36,SE,132,2.0,6.0,49,0.00,,,0.00,Wunderground v.1.15,2013-01-17 19:33:00,
2013-01-17 13:38:00,24.9,8.9,30.36,ESE,110,1.0,6.0,50,0.00,,,0.00,Wunderground v.1.15,2013-01-17 19:38:00,
2013-01-17 13:43:00,24.9,8.9,30.36,ESE,109,3.0,4.0,50,0.00,,,0.00,Wunderground v.1.15,2013-01-17 19:43:00,
2013-01-17 13:48:00,25.0,8.5,30.36,SE,124,1.0,6.0,49,0.00,,,0.00,Wunderground v.1.15,2013-01-17 19:48:00,
2013-01-17 13:53:00,25.1,9.0,30.36,ESE,118,0.0,6.0,50,0.00,,,0.00,Wunderground v.1.15,2013-01-17 19:53:00,
2013-01-17 13:58:00,25.7,9.2,30.36,ESE,107,4.0,6.0,49,0.00,,,0.00,Wunderground v.1.15,2013-01-17 19:58:00,
2013-01-17 14:03:00,25.9,9.3,30.35,ENE,71,1.0,4.0,49,0.00,,,0.00,Wunderground v.1.15,2013-01-17 20:03:00,
2013-01-17 14:08:00,26.3,9.7,30.35,ESE,110,5.0,5.0,49,0.00,,,0.00,Wunderground v.1.15,2013-01-17 20:08:00,
2013-01-17 14:13:00,26.0,9.4,30.35,ESE,120,3.0,5.0,49,0.00,,,0.00,Wunderground v.1.15,2013-01-17 20:13:00,
2013-01-17 14:18:00,25.5,8.5,30.35,SSE,161,3.0,5.0,48,0.00,,,0.00,Wunderground v.1.15,2013-01-17 20:18:00,
2013-01-17 14:23:00,25.3,9.2,30.35,SE,128,1.0,3.0,50,0.00,,,0.00,Wunderground v.1.15,2013-01-17 20:23:00,
2013-01-17 14:28:00,25.4,8.9,30.35,ESE,114,1.0,4.0,49,0.00,,,0.00,Wunderground v.1.15,2013-01-17 20:28:00,
2013-01-17 14:33:00,25.5,9.0,30.35,ESE,123,0.0,7.0,49,0.00,,,0.00,Wunderground v.1.15,2013-01-17 20:33:00,
2013-01-17 14:38:00,25.3,9.2,30.35,SE,137,3.0,7.0,50,0.00,,,0.00,Wunderground v.1.15,2013-01-17 20:38:00,
2013-01-17 14:43:00,25.3,9.2,30.35,East,99,2.0,5.0,50,0.00,,,0.00,Wunderground v.1.15,2013-01-17 20:43:00,
2013-01-17 14:48:00,25.3,9.2,30.35,South,172,1.0,5.0,50,0.00,,,0.00,Wunderground v.1.15,2013-01-17 20:48:00,
2013-01-17 14:54:00,25.5,9.9,30.35,East,83,0.0,3.0,51,0.00,,,0.00,Wunderground v.1.15,2013-01-17 20:54:00,
2013-01-17 14:58:00,25.6,10.0,30.35,SSE,156,1.0,5.0,51,0.00,,,0.00,Wunderground v.1.15,2013-01-17 20:58:00,
2013-01-17 15:03:00,25.6,10.0,30.35,SSE,147,1.0,5.0,51,0.00,,,0.00,Wunderground v.1.15,2013-01-17 21:03:00,
2013-01-17 15:09:00,25.6,10.4,30.35,East,87,5.0,5.0,52,0.00,,,0.00,Wunderground v.1.15,2013-01-17 21:09:00,
2013-01-17 15:14:00,25.6,10.4,30.35,ESE,114,2.0,5.0,52,0.00,,,0.00,Wunderground v.1.15,2013-01-17 21:14:00,
2013-01-17 15:19:00,25.6,10.0,30.35,East,90,1.0,5.0,51,0.00,,,0.00,Wunderground v.1.15,2013-01-17 21:19:00,
2013-01-17 15:24:00,25.7,10.5,30.34,SE,125,3.0,5.0,52,0.00,,,0.00,Wunderground v.1.15,2013-01-17 21:24:00,
2013-01-17 15:29:00,25.7,10.5,30.35,ESE,114,2.0,6.0,52,0.00,,,0.00,Wunderground v.1.15,2013-01-17 21:29:00,
2013-01-17 15:34:00,25.6,10.4,30.34,SE,131,2.0,6.0,52,0.00,,,0.00,Wunderground v.1.15,2013-01-17 21:34:00,
2013-01-17 15:39:00,25.6,10.8,30.35,ESE,121,2.0,6.0,53,0.00,,,0.00,Wunderground v.1.15,2013-01-17 21:39:00,
2013-01-17 15:44:00,25.7,11.3,30.35,ESE,122,2.0,3.0,54,0.00,,,0.00,Wunderground v.1.15,2013-01-17 21:44:00,
2013-01-17 15:49:00,25.7,10.9,30.35,ESE,103,2.0,4.0,53,0.00,,,0.00,Wunderground v.1.15,2013-01-17 21:49:00,
2013-01-17 15:54:00,25.7,11.3,30.35,ESE,121,2.0,4.0,54,0.00,,,0.00,Wunderground v.1.15,2013-01-17 21:54:00,
2013-01-17 15:59:00,25.8,11.4,30.35,ESE,122,1.0,4.0,54,0.00,,,0.00,Wunderground v.1.15,2013-01-17 21:59:00,
2013-01-17 16:04:00,25.7,11.3,30.36,SE,124,2.0,5.0,54,0.00,,,0.00,Wunderground v.1.15,2013-01-17 22:04:00,
2013-01-17 16:09:00,25.7,11.7,30.36,ESE,118,3.0,5.0,55,0.00,,,0.00,Wunderground v.1.15,2013-01-17 22:09:00,
2013-01-17 16:14:00,25.7,11.3,30.36,ESE,113,4.0,4.0,54,0.00,,,0.00,Wunderground v.1.15,2013-01-17 22:14:00,
2013-01-17 16:19:00,25.6,11.7,30.36,ESE,103,2.0,5.0,55,0.00,,,0.00,Wunderground v.1.15,2013-01-17 22:19:00,
2013-01-17 16:24:00,25.6,11.7,30.36,ESE,119,0.0,3.0,55,0.00,,,0.00,Wunderground v.1.15,2013-01-17 22:24:00,
2013-01-17 16:29:00,25.6,12.1,30.36,SE,141,0.0,3.0,56,0.00,,,0.00,Wunderground v.1.15,2013-01-17 22:29:00,
2013-01-17 16:34:00,25.5,12.0,30.37,SE,134,0.0,4.0,56,0.00,,,0.00,Wunderground v.1.15,2013-01-17 22:34:00,
2013-01-17 16:39:00,25.4,11.9,30.37,SE,125,1.0,5.0,56,0.00,,,0.00,Wunderground v.1.15,2013-01-17 22:39:00,
2013-01-17 16:44:00,25.4,11.9,30.36,SE,126,0.0,4.0,56,0.00,,,0.00,Wunderground v.1.15,2013-01-17 22:44:00,
2013-01-17 16:49:00,25.3,12.2,30.37,ESE,115,1.0,4.0,57,0.00,,,0.00,Wunderground v.1.15,2013-01-17 22:49:00,
2013-01-17 16:54:00,25.2,12.1,30.37,East,93,1.0,3.0,57,0.00,,,0.00,Wunderground v.1.15,2013-01-17 22:54:00,
2013-01-17 16:59:00,25.1,12.0,30.37,ESE,120,0.0,3.0,57,0.00,,,0.00,Wunderground v.1.15,2013-01-17 22:59:00,
2013-01-17 17:04:00,25.0,12.3,30.38,SSE,156,0.0,2.0,58,0.00,,,0.00,Wunderground v.1.15,2013-01-17 23:04:00,
2013-01-17 17:09:00,25.0,12.7,30.38,ESE,108,0.0,3.0,59,0.00,,,0.00,Wunderground v.1.15,2013-01-17 23:09:00,
2013-01-17 17:14:00,25.2,12.5,30.38,SE,128,0.0,2.0,58,0.00,,,0.00,Wunderground v.1.15,2013-01-17 23:14:00,
2013-01-17 17:19:00,25.3,12.6,30.38,SE,135,0.0,2.0,58,0.00,,,0.00,Wunderground v.1.15,2013-01-17 23:19:00,
2013-01-17 17:24:00,25.5,12.8,30.38,SE,135,0.0,1.0,58,0.00,,,0.00,Wunderground v.1.15,2013-01-17 23:24:00,
2013-01-17 17:29:00,25.4,12.7,30.38,East,101,1.0,2.0,58,0.00,,,0.00,Wunderground v.1.15,2013-01-17 23:29:00,
2013-01-17 17:34:00,25.4,13.1,30.38,East,101,0.0,1.0,59,0.00,,,0.00,Wunderground v.1.15,2013-01-17 23:34:00,
2013-01-17 17:39:00,25.2,12.9,30.38,East,101,0.0,2.0,59,0.00,,,0.00,Wunderground v.1.15,2013-01-17 23:39:00,
2013-01-17 17:44:00,25.1,12.8,30.38,East,101,1.0,3.0,59,0.00,,,0.00,Wunderground v.1.15,2013-01-17 23:44:00,
2013-01-17 17:49:00,24.8,12.9,30.38,East,101,0.0,3.0,60,0.00,,,0.00,Wunderground v.1.15,2013-01-17 23:49:00,
2013-01-17 17:54:00,24.5,12.6,30.38,East,101,1.0,1.0,60,0.00,,,0.00,Wunderground v.1.15,2013-01-17 23:54:00,
2013-01-17 17:59:00,24.3,12.8,30.38,East,101,0.0,1.0,61,0.00,,,0.00,Wunderground v.1.15,2013-01-17 23:59:00,
2013-01-17 18:04:00,24.2,13.0,30.38,East,101,0.0,1.0,62,0.00,,,0.00,Wunderground v.1.15,2013-01-18 00:04:00,
2013-01-17 18:09:00,24.1,12.9,30.38,East,101,1.0,2.0,62,0.00,,,0.00,Wunderground v.1.15,2013-01-18 00:09:00,
2013-01-17 18:14:00,23.9,12.8,30.38,ESE,114,0.0,3.0,62,0.00,,,0.00,Wunderground v.1.15,2013-01-18 00:14:00,
2013-01-17 18:19:00,23.8,13.0,30.38,ESE,114,0.0,3.0,63,0.00,,,0.00,Wunderground v.1.15,2013-01-18 00:19:00,
2013-01-17 18:24:00,23.7,12.9,30.39,ESE,106,1.0,3.0,63,0.00,,,0.00,Wunderground v.1.15,2013-01-18 00:24:00,
2013-01-17 18:29:00,23.6,13.2,30.39,ESE,110,1.0,3.0,64,0.00,,,0.00,Wunderground v.1.15,2013-01-18 00:29:00,
2013-01-17 18:34:00,23.4,13.4,30.39,ESE,109,1.0,3.0,65,0.00,,,0.00,Wunderground v.1.15,2013-01-18 00:34:00,
2013-01-17 18:39:00,23.3,13.3,30.39,ESE,108,1.0,3.0,65,0.00,,,0.00,Wunderground v.1.15,2013-01-18 00:39:00,
2013-01-17 18:44:00,23.3,13.6,30.39,ESE,105,1.0,4.0,66,0.00,,,0.00,Wunderground v.1.15,2013-01-18 00:44:00,
2013-01-17 18:49:00,23.3,13.6,30.40,East,101,2.0,6.0,66,0.00,,,0.00,Wunderground v.1.15,2013-01-18 00:49:00,
2013-01-17 18:54:00,23.4,13.7,30.40,ESE,113,2.0,4.0,66,0.00,,,0.00,Wunderground v.1.15,2013-01-18 00:54:00,
2013-01-17 18:59:00,23.4,13.7,30.40,ESE,112,1.0,4.0,66,0.00,,,0.00,Wunderground v.1.15,2013-01-18 00:59:00,
2013-01-17 19:04:00,23.3,13.6,30.40,SE,139,1.0,5.0,66,0.00,,,0.00,Wunderground v.1.15,2013-01-18 01:04:00,
2013-01-17 19:09:00,23.2,13.5,30.39,ESE,107,1.0,5.0,66,0.00,,,0.00,Wunderground v.1.15,2013-01-18 01:09:00,
2013-01-17 19:14:00,23.1,13.8,30.39,ESE,107,0.0,2.0,67,0.00,,,0.00,Wunderground v.1.15,2013-01-18 01:14:00,
2013-01-17 19:19:00,22.9,13.6,30.39,ESE,117,1.0,3.0,67,0.00,,,0.00,Wunderground v.1.15,2013-01-18 01:19:00,
2013-01-17 19:24:00,22.8,13.5,30.39,ESE,115,0.0,2.0,67,0.00,,,0.00,Wunderground v.1.15,2013-01-18 01:24:00,
2013-01-17 19:30:00,22.7,13.7,30.40,ESE,114,2.0,2.0,68,0.00,,,0.00,Wunderground v.1.15,2013-01-18 01:30:00,
2013-01-17 19:35:00,22.6,13.6,30.40,ESE,122,0.0,3.0,68,0.00,,,0.00,Wunderground v.1.15,2013-01-18 01:35:00,
2013-01-17 19:40:00,22.6,13.6,30.41,East,95,3.0,4.0,68,0.00,,,0.00,Wunderground v.1.15,2013-01-18 01:40:00,
2013-01-17 19:45:00,22.5,13.5,30.41,ESE,114,0.0,3.0,68,0.00,,,0.00,Wunderground v.1.15,2013-01-18 01:45:00,
2013-01-17 19:50:00,22.5,13.9,30.41,ESE,114,1.0,1.0,69,0.00,,,0.00,Wunderground v.1.15,2013-01-18 01:50:00,
2013-01-17 19:55:00,22.4,13.8,30.41,ESE,114,1.0,2.0,69,0.00,,,0.00,Wunderground v.1.15,2013-01-18 01:55:00,
2013-01-17 20:00:00,22.3,13.7,30.41,ESE,114,0.0,0.0,69,0.00,,,0.00,Wunderground v.1.15,2013-01-18 02:00:00,
2013-01-17 20:05:00,22.2,13.6,30.41,ESE,114,0.0,1.0,69,0.00,,,0.00,Wunderground v.1.15,2013-01-18 02:05:00,
2013-01-17 20:10:00,22.2,13.6,30.41,ESE,114,0.0,0.0,69,0.00,,,0.00,Wunderground v.1.15,2013-01-18 02:10:00,
2013-01-17 20:15:00,22.1,13.8,30.41,ESE,114,0.0,1.0,70,0.00,,,0.00,Wunderground v.1.15,2013-01-18 02:15:00,
2013-01-17 20:20:00,22.0,13.7,30.42,ESE,114,0.0,0.0,70,0.00,,,0.00,Wunderground v.1.15,2013-01-18 02:20:00,
2013-01-17 20:25:00,21.9,13.9,30.42,ESE,114,0.0,0.0,71,0.00,,,0.00,Wunderground v.1.15,2013-01-18 02:25:00,
2013-01-17 20:30:00,21.8,13.8,30.42,ESE,114,0.0,0.0,71,0.00,,,0.00,Wunderground v.1.15,2013-01-18 02:30:00,
2013-01-17 20:35:00,21.7,13.7,30.42,ESE,114,0.0,0.0,71,0.00,,,0.00,Wunderground v.1.15,2013-01-18 02:35:00,
2013-01-17 20:40:00,21.6,14.0,30.42,ESE,114,0.0,0.0,72,0.00,,,0.00,Wunderground v.1.15,2013-01-18 02:40:00,
2013-01-17 20:45:00,21.5,13.9,30.42,ESE,114,0.0,0.0,72,0.00,,,0.00,Wunderground v.1.15,2013-01-18 02:45:00,
2013-01-17 20:50:00,21.4,13.8,30.42,ESE,114,0.0,0.0,72,0.00,,,0.00,Wunderground v.1.15,2013-01-18 02:50:00,
2013-01-17 20:55:00,21.2,13.9,30.42,ESE,114,0.0,0.0,73,0.00,,,0.00,Wunderground v.1.15,2013-01-18 02:55:00,
2013-01-17 21:00:00,21.1,13.8,30.42,ESE,114,0.0,0.0,73,0.00,,,0.00,Wunderground v.1.15,2013-01-18 03:00:00,
2013-01-17 21:05:00,21.1,13.8,30.42,ESE,114,0.0,0.0,73,0.00,,,0.00,Wunderground v.1.15,2013-01-18 03:05:00,
2013-01-17 21:10:00,20.9,13.6,30.42,ESE,114,0.0,0.0,73,0.00,,,0.00,Wunderground v.1.15,2013-01-18 03:10:00,
2013-01-17 21:15:00,20.9,13.6,30.42,ESE,114,0.0,0.0,73,0.00,,,0.00,Wunderground v.1.15,2013-01-18 03:15:00,
2013-01-17 21:20:00,20.8,13.8,30.43,ESE,114,0.0,0.0,74,0.00,,,0.00,Wunderground v.1.15,2013-01-18 03:20:00,
2013-01-17 21:25:00,20.7,13.7,30.42,ESE,114,0.0,0.0,74,0.00,,,0.00,Wunderground v.1.15,2013-01-18 03:25:00,
2013-01-17 21:30:00,20.7,13.7,30.42,ESE,114,0.0,0.0,74,0.00,,,0.00,Wunderground v.1.15,2013-01-18 03:30:00,
2013-01-17 21:35:00,20.6,13.6,30.42,ESE,114,0.0,0.0,74,0.00,,,0.00,Wunderground v.1.15,2013-01-18 03:35:00,
2013-01-17 21:40:00,20.5,13.5,30.42,ESE,114,0.0,0.0,74,0.00,,,0.00,Wunderground v.1.15,2013-01-18 03:40:00,
2013-01-17 21:45:00,20.3,13.3,30.42,ESE,114,0.0,0.0,74,0.00,,,0.00,Wunderground v.1.15,2013-01-18 03:45:00,
2013-01-17 21:50:00,20.3,13.3,30.41,ESE,114,0.0,0.0,74,0.00,,,0.00,Wunderground v.1.15,2013-01-18 03:50:00,
2013-01-17 21:55:00,20.2,13.5,30.41,ESE,114,0.0,0.0,75,0.00,,,0.00,Wunderground v.1.15,2013-01-18 03:55:00,
2013-01-17 22:00:00,20.0,13.3,30.40,ESE,114,0.0,0.0,75,0.00,,,0.00,Wunderground v.1.15,2013-01-18 04:00:00,
2013-01-17 22:05:00,19.9,13.3,30.41,ESE,114,0.0,0.0,75,0.00,,,0.00,Wunderground v.1.15,2013-01-18 04:05:00,
2013-01-17 22:10:00,19.9,13.3,30.40,ESE,114,0.0,0.0,75,0.00,,,0.00,Wunderground v.1.15,2013-01-18 04:10:00,
2013-01-17 22:15:00,19.8,13.2,30.40,ESE,114,0.0,0.0,75,0.00,,,0.00,Wunderground v.1.15,2013-01-18 04:15:00,
2013-01-17 22:20:00,19.6,13.3,30.40,ESE,114,0.0,0.0,76,0.00,,,0.00,Wunderground v.1.15,2013-01-18 04:20:00,
2013-01-17 22:25:00,19.5,13.2,30.40,ESE,114,0.0,0.0,76,0.00,,,0.00,Wunderground v.1.15,2013-01-18 04:25:00,
2013-01-17 22:30:00,19.3,13.0,30.41,ESE,114,0.0,0.0,76,0.00,,,0.00,Wunderground v.1.15,2013-01-18 04:30:00,
2013-01-17 22:35:00,19.1,13.1,30.40,ESE,114,0.0,0.0,77,0.00,,,0.00,Wunderground v.1.15,2013-01-18 04:35:00,
2013-01-17 22:40:00,18.9,12.9,30.41,ESE,114,0.0,0.0,77,0.00,,,0.00,Wunderground v.1.15,2013-01-18 04:40:00,
2013-01-17 22:45:00,18.7,13.0,30.41,ESE,114,0.0,0.0,78,0.00,,,0.00,Wunderground v.1.15,2013-01-18 04:45:00,
2013-01-17 22:50:00,18.6,12.9,30.42,ESE,114,0.0,0.0,78,0.00,,,0.00,Wunderground v.1.15,2013-01-18 04:50:00,
2013-01-17 22:55:00,18.3,12.6,30.43,ESE,114,0.0,0.0,78,0.00,,,0.00,Wunderground v.1.15,2013-01-18 04:55:00,
2013-01-17 23:02:00,18.1,12.7,30.43,ESE,114,0.0,0.0,79,0.00,,,0.00,Wunderground v.1.15,2013-01-18 05:02:00,
2013-01-17 23:03:00,18.1,12.7,30.43,ESE,114,0.0,0.0,79,0.00,,,0.00,Wunderground v.1.15,2013-01-18 05:03:00,
2013-01-17 23:08:00,18.1,12.7,30.42,ESE,114,0.0,0.0,79,0.00,,,0.00,Wunderground v.1.15,2013-01-18 05:08:00,
2013-01-17 23:13:00,18.1,12.7,30.42,ESE,114,0.0,0.0,79,0.00,,,0.00,Wunderground v.1.15,2013-01-18 05:13:00,
2013-01-17 23:18:00,17.9,12.2,30.42,ESE,114,0.0,0.0,78,0.00,,,0.00,Wunderground v.1.15,2013-01-18 05:18:00,
2013-01-17 23:23:00,17.9,12.2,30.43,WSW,241,1.0,2.0,78,0.00,,,0.00,Wunderground v.1.15,2013-01-18 05:23:00,
2013-01-17 23:28:00,17.9,12.2,30.43,WSW,241,0.0,2.0,78,0.00,,,0.00,Wunderground v.1.15,2013-01-18 05:28:00,
2013-01-17 23:33:00,17.9,12.2,30.42,SSW,201,2.0,2.0,78,0.00,,,0.00,Wunderground v.1.15,2013-01-18 05:33:00,
2013-01-17 23:38:00,17.9,11.9,30.43,SSW,201,0.0,2.0,77,0.00,,,0.00,Wunderground v.1.15,2013-01-18 05:38:00,
2013-01-17 23:43:00,17.9,11.9,30.43,SSW,201,0.0,1.0,77,0.00,,,0.00,Wunderground v.1.15,2013-01-18 05:43:00,
2013-01-17 23:48:00,17.8,11.8,30.43,SSW,201,0.0,1.0,77,0.00,,,0.00,Wunderground v.1.15,2013-01-18 05:48:00,
2013-01-17 23:53:00,17.7,11.7,30.44,SSW,201,0.0,0.0,77,0.00,,,0.00,Wunderground v.1.15,2013-01-18 05:53:00,
2013-01-17 23:58:00,17.7,11.7,30.44,SSW,201,0.0,1.0,77,0.00,,,0.00,Wunderground v.1.15,2013-01-18 05:58:00,